Location: Cardiff
(53.7833°N, 113.6000°W)
Time: 19:14:02
(UTC+00:00)

RS-15 - Pass Details

Date: 12 December 2023
Orbit: 1893 x 2151 km, 64.8° (Epoch: 24 February)

Event Time Altitude Azimuth Distance (km) Brightness Sun altitude
Rises 04:28:06 0° 234° (SW) 5,645 10.7 -44.5°
Reaches altitude 10° 04:31:36 10° 237° (WSW) 4,626 10.2 -45.0°
Enters shadow 04:42:07 67° 275° (W) 2,215 8.2 -46.3°
